Weather History for Laredo, TX

Change the Weather History Date:

Thursday, October 11, 2012

  Actual Average Record
Temperature  
Mean Temperature 86 °F 77 °F  
Max Temperature 96 °F 88 °F 107 °F (1926)
Min Temperature 76 °F 67 °F 43 °F (1908)
Degree Days  
Heating Degree Days 0 0  
Month to date heating degree days 2 0  
Since 1 July heating degree days 2 1  
Cooling Degree Days 21 12  
Month to date cooling degree days 155 146  
Year to date cooling degree days 4585 3931  
Growing Degree Days 35 (Base 50)    
Moisture  
Dew Point 71 °F    
Average Humidity 67    
Maximum Humidity 90    
Minimum Humidity 37    
Precipitation  
Precipitation 0.00 in 0.08 in 1.87 in (2005)
Month to date precipitation T 0.90  
Year to date precipitation 8.76 16.82  
Sea Level Pressure  
Sea Level Pressure 30.02 in    
Wind  
Wind Speed 14 mph (SE)    
Max Wind Speed 23 mph    
Max Gust Speed 28 mph    
Visibility 10 miles    
Events      
T = Trace of Precipitation, MM = Missing Value Source: NWS Daily Summary

Daily Weather History Graph

Daily Weather History Graph

Search for Another Location

Airport:

Trip Planner

Search our weather history database for the weather conditions in past years. The results will help you decide how hot, cold, wet, or windy it might be!

Date:

Astronomy

Oct. 11, 2012 Rise Set
Actual Time 7:35 AM CDT 7:12 PM CDT
Civil Twilight 7:12 AM CDT 7:35 PM CDT
Nautical Twilight 6:45 AM CDT 8:03 PM CDT
Astronomical Twilight 6:18 AM CDT 8:30 PM CDT
Moon 3:36 AM CDT (10/11) 4:32 PM CDT (10/11)
Length of Visible Light 12h 23m
Length of Day
11h 36m
Waning Crescent, 18% of the Moon is Illuminated
Oct 11
Waning Crescent
Oct 15
New
Oct 21
First Quarter
Oct 29
Full
Nov 6
Last Quarter

Hourly Weather History & Observations

Time (CDT) Temp. Heat Index Dew Point Humidity Pressure Visibility Wind Dir Wind Speed Gust Speed Precip Events Conditions
12:56 AM 80.6 °F 85.4 °F 73.4 °F 79% 30.05 in 10.0 mi SSE 12.7 mph - N/A   Clear
1:56 AM 79.0 °F - 73.9 °F 84% 30.01 in 10.0 mi SE 11.5 mph - N/A   Partly Cloudy
2:56 AM 79.0 °F - 73.9 °F 84% 30.00 in 10.0 mi SE 10.4 mph - N/A   Clear
3:56 AM 77.9 °F - 73.9 °F 88% 29.99 in 10.0 mi SE 8.1 mph - N/A   Partly Cloudy
4:56 AM 77.0 °F - 72.9 °F 87% 29.98 in 10.0 mi SE 8.1 mph - N/A   Partly Cloudy
5:56 AM 77.0 °F - 72.9 °F 87% 29.99 in 10.0 mi SE 6.9 mph - N/A   Clear
6:56 AM 75.2 °F - 73.4 °F 94% 30.04 in 10.0 mi SE 8.1 mph - N/A   Clear
7:56 AM 75.9 °F - 72.9 °F 90% 30.02 in 10.0 mi SE 6.9 mph - N/A   Clear
8:56 AM 79.0 °F - 73.9 °F 84% 30.04 in 10.0 mi SE 13.8 mph - N/A   Clear
9:47 AM 82.4 °F 88.2 °F 73.4 °F 74% 30.10 in 10.0 mi SE 13.8 mph - N/A   Mostly Cloudy
9:56 AM 81.9 °F 87.0 °F 72.9 °F 74% 30.06 in 10.0 mi SE 16.1 mph - N/A   Mostly Cloudy
10:56 AM 86.0 °F 92.2 °F 72.0 °F 63% 30.07 in 10.0 mi SE 16.1 mph - N/A   Mostly Cloudy
11:07 AM 87.8 °F 93.8 °F 71.6 °F 58% 30.10 in 10.0 mi SE 19.6 mph - N/A   Mostly Cloudy
11:56 AM 88.9 °F 93.8 °F 70.0 °F 53% 30.06 in 10.0 mi SSE 17.3 mph - N/A   Mostly Cloudy
12:56 PM 90.0 °F 94.5 °F 68.9 °F 50% 30.04 in 10.0 mi SSE 13.8 mph 23.0 mph N/A   Mostly Cloudy
1:56 PM 91.9 °F 95.9 °F 68.0 °F 45% 30.00 in 10.0 mi SE 15.0 mph - N/A   Scattered Clouds
2:56 PM 95.0 °F 97.9 °F 65.8 °F 38% 29.97 in 10.0 mi South 18.4 mph - N/A   Partly Cloudy
3:56 PM 93.9 °F 96.5 °F 65.8 °F 39% 29.96 in 10.0 mi SSE 17.3 mph - N/A   Scattered Clouds
4:56 PM 95.9 °F 100.1 °F 66.9 °F 39% 29.95 in 10.0 mi SSE 17.3 mph 23.0 mph N/A   Partly Cloudy
5:56 PM 91.4 °F 96.8 °F 69.8 °F 49% 29.98 in 10.0 mi ESE 18.4 mph - N/A   Scattered Clouds
6:56 PM 90.9 °F 94.8 °F 68.0 °F 47% 29.95 in 10.0 mi ESE 18.4 mph 21.9 mph N/A   Mostly Cloudy
7:56 PM 86.0 °F 91.8 °F 71.6 °F 62% 30.01 in 10.0 mi ESE 15.0 mph - N/A   Clear
8:56 PM 84.9 °F 90.1 °F 70.9 °F 63% 29.99 in 10.0 mi ESE 17.3 mph - N/A   Clear
9:56 PM 83.8 °F 88.6 °F 70.9 °F 65% 30.02 in 10.0 mi ESE 16.1 mph 24.2 mph N/A   Clear
10:56 PM 81.9 °F 86.0 °F 70.9 °F 69% 30.04 in 10.0 mi SE 16.1 mph - N/A   Clear
11:56 PM 80.6 °F 84.6 °F 71.6 °F 74% 30.08 in 10.0 mi SE 17.3 mph - N/A   Clear